| time (UTC) | temp F | wind direction | speed knots | gust knots | rain 1hr in | rain 24hr in | rain mn in | humidity % | barometer mb |
| 20260509094634 | 71 | 347 | 0.0 | 0.9 | 0.00 | 0.80 | 0.00 | 100 | 1010.3 |
| 20260509093633 | 71 | 354 | 0.0 | 0.0 | 0.00 | 0.80 | 0.00 | 100 | 1010.3 |
| 20260509092633 | 71 | 354 | 0.0 | 0.9 | 0.00 | 0.80 | 0.00 | 100 | 1010.3 |
| 20260509091631 | 71 | 354 | 0.0 | 0.9 | 0.00 | 0.80 | 0.00 | 100 | 1010.3 |
| 20260509090631 | 71 | 79 | 0.0 | 0.0 | 0.00 | 0.80 | 0.00 | 100 | 1010.3 |
| 20260509085630 | 71 | 79 | 0.0 | 0.9 | 0.00 | 0.80 | 0.00 | 100 | 1010.6 |
| 20260509084558 | 71 | 79 | 0.0 | 0.9 | 0.00 | 0.80 | 0.00 | 100 | 1010.6 |
| 20260509083557 | 71 | 81 | 0.0 | 0.9 | 0.00 | 0.80 | 0.00 | 100 | 1010.3 |
| 20260509082525 | 71 | 34 | 0.0 | 0.9 | 0.00 | 0.80 | 0.00 | 100 | 1010.6 |
| 20260509081452 | 71 | 15 | 0.0 | 0.9 | 0.00 | 0.80 | 0.00 | 100 | 1010.6 |
| 20260509080451 | 71 | 32 | 0.0 | 0.9 | 0.00 | 0.80 | 0.00 | 100 | 1010.6 |
| 20260509075451 | 71 | 103 | 0.0 | 0.9 | 0.00 | 0.80 | 0.00 | 100 | 1010.6 |
| 20260509074419 | 71 | 18 | 0.0 | 0.9 | 0.00 | 0.80 | 0.00 | 100 | 1010.6 |
| 20260509073418 | 71 | 74 | 0.9 | 1.7 | 0.00 | 0.80 | 0.00 | 100 | 1010.6 |
| 20260509072416 | 71 | 16 | 0.0 | 1.7 | 0.00 | 0.80 | 0.00 | 100 | 1010.6 |
| 20260509071415 | 70 | 43 | 0.9 | 2.6 | 0.00 | 0.80 | 0.00 | 100 | 1011.0 |
| 20260509070415 | 70 | 1 | 0.9 | 3.5 | 0.00 | 0.80 | 0.00 | 100 | 1011.0 |
| 20260509065414 | 70 | 36 | 1.7 | 3.5 | 0.00 | 0.80 | 0.00 | 100 | 1011.3 |
| 20260509064342 | 70 | 356 | 0.9 | 0.9 | 0.00 | 0.80 | 0.00 | 100 | 1011.3 |
| 20260509063341 | 70 | 77 | 0.9 | 0.9 | 0.00 | 0.80 | 0.00 | 100 | 1011.3 |
| 20260509062340 | 70 | 24 | 0.9 | 0.9 | 0.00 | 0.80 | 0.00 | 100 | 1011.3 |
| 20260509061339 | 70 | 32 | 0.0 | 0.9 | 0.00 | 0.80 | 0.00 | 100 | 1010.9 |
| 20260509060338 | 70 | 346 | 0.0 | 0.0 | 0.00 | 0.80 | 0.00 | 100 | 1011.3 |
| 20260509055337 | 70 | 344 | 0.0 | 0.9 | 0.00 | 0.80 | 0.00 | 100 | 1011.3 |
| 20260509054336 | 71 | 346 | 0.0 | 0.9 | 0.00 | 0.80 | 0.00 | 100 | 1011.3 |
| 20260509053335 | 71 | 6 | 0.0 | 0.0 | 0.00 | 0.80 | 0.00 | 100 | 1011.3 |
| 20260509052334 | 70 | 27 | 0.0 | 0.0 | 0.00 | 0.80 | 0.00 | 100 | 1011.6 |
| 20260509051333 | 70 | 27 | 0.0 | 0.0 | 0.00 | 0.80 | 0.00 | 100 | 1011.6 |
| 20260509050332 | 70 | 27 | 0.0 | 0.0 | 0.00 | 0.80 | 0.00 | 99 | 1012.0 |
| 20260509045331 | 70 | 27 | 0.0 | 0.0 | 0.00 | 0.80 | 0.00 | 99 | 1012.0 |
| 20260509044330 | 71 | 27 | 0.0 | 0.0 | 0.00 | 0.80 | 0.00 | 99 | 1012.0 |
| 20260509043258 | 71 | 27 | 0.0 | 0.0 | 0.00 | 0.80 | 0.00 | 99 | 1012.0 |
| 20260509042257 | 71 | 27 | 0.0 | 0.0 | 0.00 | 0.80 | 0.00 | 99 | 1012.0 |
| 20260509041257 | 71 | 27 | 0.0 | 0.0 | 0.00 | 0.80 | 0.00 | 99 | 1012.3 |
| 20260509040256 | 71 | 27 | 0.0 | 0.0 | 0.00 | 0.80 | 0.00 | 99 | 1012.3 |
| 20260509035255 | 71 | 28 | 0.0 | 0.0 | 0.00 | 0.80 | 0.80 | 99 | 1012.3 |
| 20260509034254 | 71 | 27 | 0.0 | 0.0 | 0.00 | 0.80 | 0.80 | 99 | 1012.3 |
| 20260509033253 | 71 | 58 | 0.0 | 0.0 | 0.00 | 0.80 | 0.80 | 99 | 1012.3 |
| 20260509032252 | 71 | 75 | 0.0 | 0.0 | 0.00 | 0.80 | 0.80 | 99 | 1012.3 |
| 20260509031251 | 71 | 75 | 0.0 | 0.0 | 0.00 | 0.80 | 0.80 | 99 | 1012.3 |
| 20260509030250 | 71 | 75 | 0.0 | 0.9 | 0.00 | 0.80 | 0.80 | 99 | 1012.3 |
| 20260509025249 | 71 | 75 | 0.9 | 0.9 | 0.00 | 0.80 | 0.80 | 99 | 1012.3 |
| 20260509024249 | 71 | 319 | 0.0 | 0.9 | 0.00 | 0.80 | 0.80 | 99 | 1012.3 |
| 20260509023248 | 71 | 84 | 0.0 | 0.0 | 0.00 | 0.80 | 0.80 | 99 | 1012.3 |
| 20260509022247 | 71 | 32 | 0.0 | 0.9 | 0.03 | 0.80 | 0.80 | 99 | 1012.3 |
| 20260509021246 | 72 | 32 | 0.0 | 1.7 | 0.11 | 0.80 | 0.80 | 99 | 1012.0 |
| 20260509020245 | 72 | 1 | 0.9 | 0.9 | 0.22 | 0.80 | 0.80 | 99 | 1011.6 |
| 20260509015244 | 72 | 84 | 0.9 | 0.9 | 0.24 | 0.80 | 0.80 | 99 | 1011.6 |
| 20260509014243 | 72 | 33 | 0.9 | 1.7 | 0.24 | 0.80 | 0.80 | 99 | 1011.6 |
| 20260509013242 | 72 | 32 | 0.0 | 1.7 | 0.25 | 0.80 | 0.80 | 99 | 1011.6 |
| 20260509012241 | 72 | 323 | 0.9 | 1.7 | 0.57 | 0.76 | 0.76 | 98 | 1011.6 |
| 20260509011209 | 72 | 316 | 0.0 | 4.3 | 0.68 | 0.68 | 0.68 | 98 | 1011.6 |
| 20260509010137 | 72 | 106 | 0.9 | 4.3 | 0.57 | 0.57 | 0.57 | 98 | 1011.3 |
| 20260509005136 | 71 | 15 | 1.7 | 4.3 | 0.56 | 0.56 | 0.56 | 98 | 1010.9 |
| 20260509004135 | 71 | 132 | 0.9 | 9.6 | 0.56 | 0.56 | 0.56 | 97 | 1010.6 |
| 20260509003103 | 72 | 72 | 2.6 | 15.6 | 0.54 | 0.54 | 0.54 | 96 | 1010.6 |
| 20260509002102 | 77 | 26 | 7.0 | 16.5 | 0.05 | 0.05 | 0.11 | 87 | 1011.6 |
| 20260509001101 | 78 | 303 | 1.7 | 6.1 | 0.00 | 0.00 | 0.00 | 82 | 1011.0 |
| 20260509000100 | 79 | 56 | 1.7 | 7.8 | 0.00 | 0.00 | 0.00 | 82 | 1010.3 |
| 20260508235028 | 81 | 39 | 2.6 | 7.8 | 0.00 | 0.00 | 0.00 | 79 | 1009.9 |
| 20260508234027 | 82 | 50 | 3.5 | 6.1 | 0.00 | 0.00 | 0.00 | 77 | 1010.3 |
| 20260508233026 | 82 | 52 | 1.7 | 7.0 | 0.00 | 0.00 | 0.00 | 77 | 1009.6 |
| 20260508232025 | 83 | 75 | 1.7 | 5.2 | 0.00 | 0.00 | 0.00 | 78 | 1009.6 |
| 20260508230952 | 83 | 38 | 1.7 | 7.0 | 0.00 | 0.00 | 0.00 | 78 | 1009.6 |
| 20260508225920 | 83 | 59 | 1.7 | 7.8 | 0.00 | 0.00 | 0.00 | 78 | 1009.3 |
| 20260508224919 | 84 | 75 | 1.7 | 5.2 | 0.00 | 0.00 | 0.00 | 77 | 1008.9 |
| 20260508223848 | 84 | 100 | 0.9 | 6.1 | 0.00 | 0.00 | 0.00 | 77 | 1008.6 |
| 20260508222847 | 85 | 69 | 1.7 | 7.0 | 0.00 | 0.00 | 0.00 | 76 | 1008.6 |
| 20260508221846 | 85 | 72 | 1.7 | 7.0 | 0.00 | 0.00 | 0.00 | 75 | 1008.6 |
| 20260508220845 | 85 | 111 | 1.7 | 7.0 | 0.00 | 0.00 | 0.00 | 74 | 1008.3 |
| 20260508215845 | 86 | 88 | 1.7 | 8.7 | 0.00 | 0.00 | 0.00 | 74 | 1008.3 |
| 20260508214843 | 87 | 74 | 1.7 | 7.8 | 0.00 | 0.00 | 0.00 | 72 | 1008.6 |
| 20260508213843 | 88 | 82 | 1.7 | 7.0 | 0.00 | 0.00 | 0.00 | 70 | 1008.6 |
| 20260508212811 | 88 | 54 | 2.6 | 7.0 | 0.00 | 0.00 | 0.00 | 69 | 1008.6 |
| 20260508211810 | 88 | 118 | 0.9 | 7.8 | 0.00 | 0.00 | 0.00 | 71 | 1008.6 |
| 20260508210809 | 88 | 96 | 1.7 | 6.1 | 0.00 | 0.00 | 0.00 | 70 | 1008.6 |
| 20260508205808 | 88 | 56 | 2.6 | 7.0 | 0.00 | 0.00 | 0.00 | 69 | 1008.6 |
| 20260508204807 | 89 | 44 | 1.7 | 7.0 | 0.00 | 0.00 | 0.00 | 68 | 1008.6 |
| 20260508203806 | 90 | 118 | 1.7 | 4.3 | 0.00 | 0.00 | 0.00 | 60 | 1008.6 |
| 20260508202734 | 90 | 51 | 0.9 | 4.3 | 0.00 | 0.00 | 0.00 | 60 | 1008.9 |
| 20260508201733 | 90 | 48 | 1.7 | 5.2 | 0.00 | 0.00 | 0.00 | 61 | 1008.9 |
| 20260508200732 | 91 | 59 | 1.7 | 6.1 | 0.00 | 0.00 | 0.00 | 61 | 1008.9 |
| 20260508195731 | 91 | 57 | 1.7 | 6.1 | 0.00 | 0.00 | 0.00 | 60 | 1009.3 |
| 20260508194659 | 92 | 99 | 1.7 | 6.1 | 0.00 | 0.00 | 0.00 | 60 | 1009.3 |
| 20260508193627 | 94 | 29 | 1.7 | 6.1 | 0.00 | 0.00 | 0.00 | 58 | 1009.3 |
| 20260508192626 | 93 | 1 | 0.9 | 2.6 | 0.00 | 0.00 | 0.00 | 52 | 1009.6 |
| 20260508191625 | 92 | 193 | 0.9 | 4.3 | 0.00 | 0.00 | 0.00 | 55 | 1009.6 |
| 20260508190624 | 93 | 320 | 1.7 | 7.0 | 0.00 | 0.00 | 0.00 | 54 | 1010.0 |
| 20260508185521 | 92 | 251 | 0.9 | 5.2 | 0.00 | 0.00 | 0.00 | 55 | 1010.3 |
| 20260508184520 | 92 | 284 | 0.9 | 6.1 | 0.00 | 0.00 | 0.00 | 55 | 1010.3 |
| 20260508183519 | 91 | 315 | 0.9 | 3.5 | 0.00 | 0.00 | 0.00 | 56 | 1010.6 |
| 20260508182518 | 91 | 308 | 0.9 | 3.5 | 0.00 | 0.00 | 0.00 | 57 | 1010.6 |
| 20260508181517 | 90 | 129 | 1.7 | 4.3 | 0.00 | 0.00 | 0.00 | 59 | 1011.0 |
| 20260508180445 | 89 | 24 | 0.9 | 2.6 | 0.00 | 0.00 | 0.00 | 60 | 1011.3 |
| 20260508175445 | 89 | 125 | 0.9 | 2.6 | 0.00 | 0.00 | 0.00 | 60 | 1011.3 |
| 20260508174444 | 88 | 324 | 0.0 | 2.6 | 0.00 | 0.00 | 0.00 | 62 | 1011.3 |
| 20260508173443 | 88 | 356 | 0.9 | 2.6 | 0.00 | 0.00 | 0.00 | 62 | 1011.3 |
| 20260508172442 | 89 | 285 | 0.9 | 2.6 | 0.00 | 0.00 | 0.00 | 62 | 1011.7 |
| 20260508171441 | 89 | 156 | 0.9 | 2.6 | 0.00 | 0.00 | 0.00 | 62 | 1011.7 |
| 20260508170440 | 89 | 282 | 1.7 | 5.2 | 0.00 | 0.00 | 0.00 | 61 | 1012.0 |
| 20260508165439 | 89 | 172 | 0.9 | 5.2 | 0.00 | 0.00 | 0.00 | 61 | 1012.0 |
| 20260508164438 | 89 | 170 | 0.9 | 2.6 | 0.00 | 0.00 | 0.00 | 61 | 1012.0 |
| 20260508163406 | 88 | 269 | 0.9 | 1.7 | 0.00 | 0.00 | 0.00 | 65 | 1012.3 |
| 20260508162405 | 86 | 255 | 0.0 | 1.7 | 0.00 | 0.00 | 0.00 | 66 | 1012.3 |
| 20260508161404 | 86 | 289 | 0.9 | 4.3 | 0.00 | 0.00 | 0.00 | 67 | 1012.7 |
| 20260508160403 | 86 | 316 | 0.9 | 4.3 | 0.00 | 0.00 | 0.00 | 68 | 1012.7 |
| 20260508155402 | 86 | 298 | 0.9 | 2.6 | 0.00 | 0.00 | 0.00 | 68 | 1012.7 |
| 20260508154401 | 86 | 282 | 0.9 | 1.7 | 0.00 | 0.00 | 0.00 | 68 | 1013.0 |
| 20260508153401 | 86 | 294 | 0.0 | 2.6 | 0.00 | 0.00 | 0.00 | 69 | 1013.0 |
| 20260508152400 | 86 | 301 | 1.7 | 2.6 | 0.00 | 0.00 | 0.00 | 68 | 1013.0 |
| 20260508151359 | 86 | 251 | 0.9 | 1.7 | 0.00 | 0.00 | 0.00 | 68 | 1013.0 |
| 20260508150358 | 86 | 264 | 0.9 | 2.6 | 0.00 | 0.00 | 0.00 | 70 | 1013.0 |
| 20260508145357 | 84 | 38 | 1.7 | 3.5 | 0.00 | 0.00 | 0.00 | 74 | 1013.0 |
| 20260508144356 | 83 | 301 | 0.9 | 2.6 | 0.00 | 0.00 | 0.00 | 78 | 1013.0 |
| 20260508143355 | 83 | 252 | 0.9 | 2.6 | 0.00 | 0.00 | 0.00 | 79 | 1013.3 |
| 20260508142323 | 83 | 313 | 0.0 | 3.5 | 0.00 | 0.00 | 0.00 | 79 | 1013.0 |
| 20260508141322 | 82 | 315 | 0.9 | 3.5 | 0.00 | 0.00 | 0.00 | 82 | 1013.0 |
| 20260508140321 | 81 | 293 | 0.9 | 3.5 | 0.00 | 0.00 | 0.00 | 83 | 1013.0 |
| 20260508135321 | 81 | 301 | 1.7 | 3.5 | 0.00 | 0.00 | 0.00 | 84 | 1013.3 |
| 20260508134320 | 81 | 298 | 0.9 | 4.3 | 0.00 | 0.00 | 0.00 | 85 | 1013.0 |
| 20260508133319 | 80 | 292 | 0.9 | 4.3 | 0.00 | 0.00 | 0.00 | 87 | 1013.0 |
| 20260508132318 | 79 | 305 | 1.7 | 2.6 | 0.00 | 0.00 | 0.00 | 88 | 1013.0 |
| 20260508131317 | 79 | 290 | 0.9 | 2.6 | 0.00 | 0.00 | 0.00 | 89 | 1013.0 |
| 20260508130245 | 79 | 289 | 0.9 | 2.6 | 0.00 | 0.00 | 0.00 | 90 | 1013.0 |
| 20260508125244 | 78 | 272 | 0.9 | 2.6 | 0.00 | 0.00 | 0.00 | 91 | 1012.7 |
| 20260508124243 | 78 | 276 | 0.9 | 0.9 | 0.00 | 0.00 | 0.00 | 92 | 1013.0 |
| 20260508123242 | 77 | 270 | 0.0 | 0.9 | 0.00 | 0.00 | 0.00 | 94 | 1012.7 |
| 20260508122210 | 76 | 301 | 0.9 | 0.9 | 0.00 | 0.00 | 0.00 | 95 | 1012.7 |
| 20260508121209 | 75 | 269 | 0.0 | 0.9 | 0.00 | 0.00 | 0.00 | 95 | 1012.7 |
| 20260508120208 | 75 | 255 | 0.9 | 0.9 | 0.00 | 0.00 | 0.00 | 96 | 1012.7 |
| 20260508115136 | 74 | 278 | 0.9 | 0.9 | 0.00 | 0.00 | 0.00 | 97 | 1012.3 |
| 20260508114136 | 73 | 283 | 0.0 | 0.0 | 0.00 | 0.00 | 0.00 | 97 | 1012.3 |
| 20260508113135 | 72 | 284 | 0.0 | 0.0 | 0.00 | 0.00 | 0.00 | 97 | 1012.3 |
| 20260508112134 | 72 | 283 | 0.0 | 0.0 | 0.00 | 0.00 | 0.00 | 97 | 1012.0 |
| 20260508111133 | 71 | 284 | 0.0 | 0.0 | 0.00 | 0.00 | 0.00 | 98 | 1012.0 |
| 20260508110132 | 71 | 284 | 0.0 | 0.0 | 0.00 | 0.00 | 0.00 | 98 | 1012.0 |
| 20260508105132 | 70 | 283 | 0.0 | 0.0 | 0.00 | 0.00 | 0.00 | 97 | 1012.0 |
| 20260508104130 | 70 | 283 | 0.0 | 0.0 | 0.00 | 0.00 | 0.00 | 97 | 1011.6 |
| 20260508103058 | 70 | 284 | 0.0 | 0.0 | 0.00 | 0.00 | 0.00 | 97 | 1011.7 |
| 20260508101955 | 69 | 284 | 0.0 | 0.0 | 0.00 | 0.00 | 0.00 | 97 | 1011.3 |
| 20260508100954 | 70 | 283 | 0.0 | 0.0 | 0.00 | 0.00 | 0.00 | 97 | 1011.3 |
| 20260508095953 | 70 | 284 | 0.0 | 0.0 | 0.00 | 0.00 | 0.00 | 97 | 1011.3 |